Regional Weather Roundup
Issued by NWS Kansas City/Pleasant Hill, MO

Home | Current Version | Previous Version | Text Only | Print | Product List | Glossary On
Versions: 1 2 3 4 5 6 7 8 9 10 11 12 13 14 15 16 17 18 19 20 21 22 23 24 25 26 27 28 29 30 31 32 33 34 35 36 37 38 39 40 41 42 43 44 45 46 47 48 49 50
000
ASUS43 KEAX 220410
RWREAX

WEATHER ROUNDUP FOR EASTERN KANSAS AND NORTHWEST MISSOURI
NATIONAL WEATHER SERVICE KANSAS CITY/PLEASANT HILL MO
1100 PM CDT MON AUG 21 2017

KSZ040-057-103>105-MOZ028-029-037-043-220500-
...KANSAS CITY METROPOLITAN AREA...

CITY           SKY/WX    TMP DP  RH WIND       PRES   REMARKS
K.C. INTL      HVY RAIN  69  68  96 E6        30.02F FOG
K.C. DOWNTOWN  TSTM      71  70  96 W5        30.03R FOG
LEES SUMMIT    TSTM      69  69 100 N12       30.04F FOG
OLATHE - IXD   TSTM      72  71  97 VRB5      30.00R
OLATHE - OJC   TSTM      69  69 100 MISG      30.03R VSB 1/2
LAWRENCE       TSTM      70  70 100 N14G21    30.02R VSB 3/4

$$

MOZ001>008-011>017-020>025-030>033-038>040-044>046-053-054-220500-
...NORTHERN AND CENTRAL MISSOURI...

CITY           SKY/WX    TMP DP  RH WIND       PRES   REMARKS
ST. JOSEPH     LGT RAIN  70  70 100 SE9       29.96F
MOSBY          TSTM      70  68  94 CALM      30.01R
WARRENSBURG    CLOUDY    73  64  73 NW14G26   30.03R THUNDER
WHITEMAN AFB   MOCLDY    81  81 100 SW14      29.97R HX  92
CLINTON        MOCLDY    81  75  83 S6        29.99S
SEDALIA        CLOUDY    79  76  90 S7        29.99R
WARSAW         NOT AVBL
CHILLICOTHE      N/A     71  71 100 CALM      29.99R
KIRKSVILLE     TSTM      69  32  25 E12       30.05R VSB 3/4

$$

MOZ041-047>049-056>058-063>065-088>090-097-220500-
...EASTERN AND SOUTHERN MISSOURI...

CITY           SKY/WX    TMP DP  RH WIND       PRES   REMARKS
ST. LOUIS INTL CLOUDY    82  74  76 VRB6      29.99S
SPIRIT OF STL  PTCLDY    79  75  87 S6        29.97F
COLUMBIA       CLOUDY    76  72  87 S8        29.99R
JEFFERSON CITY CLEAR     77  75  93 SE5       29.98R
ROLLA          CLEAR     78  73  84 S10       30.05R
OSAGE BEACH    CLEAR     78  74  87 S7        30.02R
SPRINGFIELD    CLEAR     77  74  90 S7        30.06R
BRANSON        CLEAR     77  72  83 S5        30.09S
JOPLIN         CLEAR     83  76  79 S15       30.03R HX  91
WEST PLAINS    CLEAR     79  72  79 S7        30.09R

$$

IAZ060-094-KSZ022-034>040-054-083-096-NEZ052-066-093-220500-
...KANSAS...SOUTHEAST NEBRASKA AND IOWA...

CITY           SKY/WX    TMP DP  RH WIND       PRES   REMARKS
TOPEKA         TSTM      71  71 100 E8        29.96F FOG
MANHATTAN      LGT RAIN  75  74  96 N3        29.94R
EMPORIA          N/A     74  71  91 S20G28    29.96R
CHANUTE        CLOUDY    83  74  74 S14       30.00R
WICHITA        CLOUDY    79  73  82 S10       29.97R
OMAHA          TSTM      67  63  87 SE7       30.00R
LINCOLN        CLOUDY    68  64  87 NE17G31   30.00R
FALLS CITY     CLOUDY    71  69  93 S8        29.93R
LAMONI         RAIN      67  66  97 SE6       29.99F FOG
DES MOINES     CLOUDY    67  65  93 S9        29.96F

$$




USA.gov is the U.S. government's official web portal to all federal, state and local government web resources and services.